Weather History for New Orleans NAS, LA

Change the Weather History Date:

Monday, April 1, 2013

  Actual Average Record
Temperature  
Mean Temperature 68 °F -  
Max Temperature 77 °F 73 °F 84 °F (2012)
Min Temperature 59 °F 57 °F 44 °F (2004)
Cooling Degree Days 3    
Growing Degree Days 18 (Base 50)    
Moisture  
Dew Point 56 °F    
Average Humidity 66    
Maximum Humidity 94    
Minimum Humidity 46    
Precipitation  
Precipitation 0.00 in - - ()
Sea Level Pressure  
Sea Level Pressure 30.04 in    
Wind  
Wind Speed 4 mph (North)    
Max Wind Speed 12 mph    
Max Gust Speed -    
Visibility 7 miles    
Events Fog    
Averages and records for this station are not official NWS values.
T = Trace of Precipitation, MM = Missing Value Source: NWS Daily Summary

Daily Weather History Graph

Daily Weather History Graph

Search for Another Location

Airport:

Trip Planner

Search our weather history database for the weather conditions in past years. The results will help you decide how hot, cold, wet, or windy it might be!

Date:

Astronomy

Apr. 01, 2013 Rise Set
Actual Time 6:49 AM CDT 7:18 PM CDT
Civil Twilight 6:25 AM CDT 7:42 PM CDT
Nautical Twilight 5:57 AM CDT 8:11 PM CDT
Astronomical Twilight 5:28 AM CDT 8:39 PM CDT
Moon 12:08 AM CDT (4/1) 10:55 AM CDT (4/1)
Length of Visible Light 13h 17m
Length of Day
12h 29m
Waning Gibbous, 67% of the Moon is Illuminated
Apr 1
Waning Gibbous
Apr 2
Last Quarter
Apr 10
New
Apr 18
First Quarter
Apr 25
Full

Hourly Weather History & Observations

Time (CDT) Temp. Dew Point Humidity Pressure Visibility Wind Dir Wind Speed Gust Speed Precip Events Conditions
6:12 AM 59.0 °F 57.2 °F 94% 30.02 in 0.1 mi Calm Calm - N/A Fog Fog
6:55 AM 59.7 °F 57.2 °F 91% 30.04 in 0.2 mi Variable 5.8 mph - N/A   Unknown
7:04 AM 59.0 °F 57.2 °F 94% 30.04 in 0.1 mi Variable 5.8 mph - N/A   Unknown
7:55 AM 61.5 °F 58.1 °F 89% 30.06 in 0.8 mi Calm Calm - N/A   Mostly Cloudy
8:33 AM 62.6 °F 55.4 °F 77% 30.07 in 4.0 mi North 8.1 mph - N/A   Haze
8:55 AM 63.3 °F 55.8 °F 76% 30.07 in 4.0 mi North 8.1 mph - N/A   Haze
9:55 AM 65.7 °F 56.1 °F 71% 30.08 in 8.0 mi North 8.1 mph - N/A   Mostly Cloudy
10:55 AM 68.0 °F 56.5 °F 67% 30.09 in 10.0 mi NNW 8.1 mph - N/A   Scattered Clouds
11:55 AM 72.0 °F 57.9 °F 61% 30.09 in - North 10.4 mph - N/A   Scattered Clouds
12:55 PM 74.1 °F 57.9 °F 57% 30.08 in 10.0 mi North 10.4 mph - N/A   Scattered Clouds
1:55 PM 74.7 °F 57.6 °F 55% 29.83 in 10.0 mi North 11.5 mph - N/A   Scattered Clouds
2:55 PM 75.2 °F 57.9 °F 55% 30.05 in 10.0 mi North 4.6 mph - N/A   Scattered Clouds
3:55 PM 77.2 °F 58.3 °F 52% 30.03 in 10.0 mi NNW 5.8 mph - N/A   Scattered Clouds
4:55 PM 77.0 °F 55.2 °F 47% 30.02 in 10.0 mi North 5.8 mph - N/A   Scattered Clouds
5:55 PM 76.8 °F 54.9 °F 46% 30.02 in 10.0 mi Calm Calm - N/A   Clear
6:55 PM 73.8 °F 54.0 °F 50% 30.01 in 10.0 mi Calm Calm - N/A   Clear
7:55 PM 70.0 °F 53.8 °F 56% 30.01 in 9.0 mi Calm Calm - N/A   Clear
8:55 PM 68.9 °F 53.6 °F 58% 30.03 in 8.0 mi Calm Calm - N/A   Clear
9:55 PM 67.1 °F 52.7 °F 60% 30.03 in 8.0 mi Calm Calm - N/A   Clear
10:55 PM 66.4 °F 50.9 °F 57% 30.06 in 8.0 mi Calm Calm - N/A   Clear